www.pogodaiklimat.ru

Погода и климат >> Архив погоды >> Индия >> Hissar


ПОГОДА в Hissar

  • Прогноз погоды в Hissar
  • Монитор погоды в Hissar
  • Климат города

АРХИВ ПОГОДЫ в Hissar

Время (UTC), дата Ветер
(напр.,м/с)
 
Видим.   Явления Облачность Т
(С)
Тd
(С)
f
(%)
Тe
(С)
Тes
(С)
Комфортность P
(гПа)
Po
(гПа)
Тmin
(С)
Tmax
(С)
R
(мм)
R24
(мм)
S
(см)
18 12.11 В 1 1000 м дымка 8/4 600 м
[Sc diur, vesp Ac trans]
+17.4 +13.9 80 +19 +19 1012.1 1012.0
21 12.11 В 1 1000 м дымка ясно +15.4 +13.6 89 +17 +17 1011.3 1011.0
00 13.11 штиль 0 1000 м дымка ясно +15.2 +13.0 87 +15 +15 1010.8 1011.0
03 13.11 штиль 0 1000 м дымка 5/0
[Ac trans Ci fib]
+16.0 +13.9 87 +16 +17 1012.3 1012.0 +14.1 +30.1
06 13.11 ЮВ 1 2000 м мгла ясно +26.8 +14.9 48 +29 +41 жарко 1011.9 1012.0
12 13.11 Ю 1 2000 м мгла 9/5 1000 м
[St Ac trans]
+24.4 +17.3 65 +28 +28 душно 1009.0 1009.0 +29.8
15 13.11 СЗ 1 2000 м зарница {гроза} 6/1 1000 м
[Cb cap Ac trans]
+21.2 +16.6 75 +25 +25 комфорт 1010.1 1010.0
18 13.11 ЮВ 1 2000 м мгла {гроза} 5/0
[Ac trans]
+19.4 +15.7 79 +23 +23 комфорт 1010.6 1011.0
21 13.11 Ю 1 2000 м гроза, ливневой дождь 9/6 600 м
[Cb calv Ac trans]
+18.4 +16.0 86 +20 +20 1010.5 1011.0
00 14.11 штиль 0 2000 м дымка 4/0
[Ac trans]
+17.4 +15.7 90 +17 +17 1010.8 1011.0 0.2
03 14.11 ЮЗ 1 1000 м дымка ясно +16.8 +15.1 90 +18 +20 1012.8 1013.0 +15.0 +29.8 0.2
06 14.11 ЮВ 1 2000 м мгла ясно +25.4 +15.5 54 +28 +40 жарко 1012.4 1012.0
09 14.11 штиль 0 4000 м мгла 1/1 600 м
[Cu hum]
+28.0 +16.8 51 +32 +40 душно 1009.8 1010.0
12 14.11 штиль 0 2000 м мгла 5/5 600 м
[Sc diur, vesp]
+25.2 +18.3 66 +30 +30 душно 1010.1 1010.0 +28.6
15 14.11 штиль 0 2000 м мгла 4/4 1000 м
[Cu hum]
+22.0 +18.8 82 +27 +27 душно 1011.8 1012.0
18 14.11 штиль 0 2000 м мгла 3/3 1000 м
[Cu hum]
+20.4 +17.1 81 +23 +23 комфорт 1012.1 1012.0
21 14.11 ЮВ 1 2000 м дымка ясно +18.0 +15.3 84 +20 +20 1014.2 1014.0
00 15.11 ЮВ 1 2000 м дымка ясно +15.4 +14.3 93 +17 +17 1014.6 1015.0
03 15.11 штиль 0 1000 м дымка ясно +16.2 +14.8 91 +16 +18 1017.2 1017.0 +14.0 +28.6
06 15.11 штиль 0 2000 м мгла ясно +22.8 +15.5 63 +27 +39 душно 1017.6 1018.0
09 15.11 СЗ 1 2000 м мгла ясно +24.0 +16.5 63 +27 +36 жарко 1016.3 1016.0
12 15.11 штиль 0 2000 м мгла ясно +22.6 +17.5 73 +28 +28 душно 1015.6 1016.0 +24.6
15 15.11 З 1 1000 м дымка ясно +17.0 +14.2 84 +19 +19 1017.1 1017.0
18 15.11 З 1 1000 м дымка ясно +15.0 +12.8 87 +16 +16 1017.6 1018.0
21 15.11 штиль 0 1000 м дымка ясно +14.0 +12.2 89 +14 +14 1016.8 1017.0
00 16.11 З 1 1000 м дымка ясно +12.0 +10.9 93 +13 +13 1016.2 1016.0
03 16.11 З 1 1000 м дымка ясно +14.2 +11.6 84 +15 +17 1017.6 1018.0 +10.9 +24.6
06 16.11 СЗ 1 2000 м мгла ясно +23.0 +12.5 52 +26 +36 жарко 1016.5 1017.0
12 16.11 штиль 0 2000 м мгла ясно +23.4 +14.3 57 +27 +27 душно 1012.4 1012.0 +26.2
15 16.11 штиль 0 2000 м дымка ясно +16.6 +12.6 77 +17 +17 1014.3 1014.0
18 16.11 штиль 0 2000 м дымка ясно +14.0 +11.0 82 +14 +14 1014.8 1015.0
21 16.11 ЮЗ 1 1000 м дымка ясно +12.4 +10.5 88 +13 +13 1014.3 1014.0
00 17.11 З 1 1000 м дымка ясно +11.4 +10.6 95 +12 +12 1013.6 1014.0
03 17.11 З 1 1000 м дымка 3/0
[Ci fib]
+13.8 +11.6 87 +15 +16 1015.0 1015.0 +10.6 +26.2
06 17.11 З 1 2000 м мгла ясно +23.6 +13.7 54 +26 +37 жарко 1014.7 1015.0
09 17.11 З 1 2000 м мгла ясно +26.6 +13.0 43 +28 +36 жарко 1011.1 1011.0
12 17.11 штиль 0 2000 м мгла ясно +22.4 +15.8 66 +26 +26 жарко 1011.0 1011.0 +28.0
15 17.11 штиль 0 2000 м дымка ясно +17.4 +15.4 88 +17 +17 1012.5 1013.0
18 17.11 штиль 0 2000 м дымка ясно +16.0 +14.3 90 +16 +16 1012.6 1013.0
21 17.11 штиль 0 2000 м дымка ясно +12.6 +10.7 88 +12 +12 1012.9 1013.0
00 18.11 штиль 0 2000 м дымка ясно +11.4 +10.6 95 +11 +11 1013.1 1013.0
03 18.11 штиль 0 2000 м дымка ясно +14.2 +11.2 82 +14 +16 1014.8 1015.0 +10.4 +28.0
06 18.11 ЮВ 1 2000 м мгла ясно +25.4 +13.5 48 +28 +38 жарко 1014.5 1015.0
09 18.11 В 2 4000 м мгла 1/0
[Ci fib]
+28.8 +13.4 39 +30 +37 жарко 1011.3 1011.0
12 18.11 В 1 2000 м мгла ясно +24.8 +14.0 51 +27 +27 жарко 1011.2 1011.0 +29.2
15 18.11 В 1 2000 м мгла ясно +18.4 +15.0 81 +21 +21 комфорт 1013.3 1013.0
18 18.11 СВ 1 2000 м дымка ясно +15.6 +14.0 90 +17 +17 1013.6 1014.0
21 18.11 ЮВ 1 2000 м дымка ясно +15.6 +13.8 89 +17 +17 1013.8 1014.0
00 19.11 ЮВ 1 2000 м дымка ясно +15.4 +13.6 89 +17 +17 1014.0 1014.0
03 19.11 В 1 2000 м дымка 4/0
[Ci fib]
+16.6 +14.9 90 +18 +20 1016.3 1016.0 +14.6 +29.2
06 19.11 ЮВ 1 2000 м мгла ясно +25.4 +13.9 49 +28 +38 жарко 1016.4 1016.0
09 19.11 ЮВ 1 2000 м мгла 1/1 600 м
[Cu hum]
+28.0 +14.8 44 +30 +37 жарко 1014.1 1014.0
12 19.11 штиль 0 2000 м мгла 1/1 600 м
[Cu med, cong]
+24.4 +17.3 65 +28 +28 душно 1014.2 1014.0 +28.7
15 19.11 ЮВ 1 2000 м мгла ясно +22.0 +16.0 69 +26 +26 душно 1016.1 1016.0

 

Местоположение метеостанции Hissar (Haryana, Индия): широта 29.17 долгота 75.73 высота над уровнем моря 221 м.

В архиве по умолчанию представлена погода в Hissar за последнюю неделю. Архивные данные за месяц целиком и за предыдущие месяцы, начиная с января 2011 года, Вы можете получить, выбрав интересующий диапазон дат из раскрывающегося списка и нажав кнопку "Ввод!".


*Определитесь, кто Вы:
робот инопланетянин человек

Внимание! Время в таблицах - всемирное. Для получения местного времени необходимо прибавить поправку, которая в Hissar равна 5.5 ч.

Смотрите также архив погоды в соседних городах и на ближайших метеорологических станциях:

Погода в Rohtak (Haryana, Индия) (91 км)
Погода в Pilani (Rajasthan, Индия) (95 км)
Погода в Churu (Rajasthan, Индия) (129 км)
Погода в Karnal (Haryana, Индия) (139 км)
Погода в Patiala (Punjab, Индия) (147 км)
Погода в New Delhi Airport (Delhi, Индия) (151 км)
Погода в New Delhi Aya Nagar (Delhi, Индия) (157 км)
Погода в New Delhi (Delhi, Индия) (157 км)
Погода в Ridge (Delhi, Индия) (162 км)
Погода в Ambala (Haryana, Индия) (166 км)

Пояснения к столбцам:

Ветер - указаны скорость ветра в м/с - средняя за 10 мин, порывы в срок и между сроками (в фигурных скобках) и направление, откуда дует ветер: С - северный, СВ - северо-восточный, В - восточный, ЮВ - юго-восточный, Ю - южный, ЮЗ - юго-западный, З - западный, СЗ - северо-западный.
Видимость - горизонтальная дальность видимости в метрах или километрах. При видимости от 1 до 10 км при отсутствии осадков обычно наблюдается дымка, при ухудшении видимости до 1 км и менее - туман. В сухую погоду видимость может ухудшаться дымом, пылью или мглою.
Явления - указаны атмосферные явления, наблюдавшиеся в срок или в последний час перед сроком; фигурными скобками обозначены явления, наблюдавшиеся между сроками (за 1-3 часа до срока); квадратными скобками обозначены град или гололедные отложения с указанием их диаметра в мм.
Облачность - указаны через наклонную черту общая и нижняя облачность в баллах и высота нижней границы облаков в метрах; квадратными скобками обозначены формы облаков: Ci - перистые, Cs - перисто-слоистые, Cc - перисто-кучевые, Ac - высококучевые, As - высокослоистые, Sc - слоисто-кучевые, Ns - слоисто-дождевые, Cu - кучевые, Cb - кучево-дождевые. Подробнее классификацию облаков см. в Атласе облаков (PDF).
T - Температура воздуха - температура, измеренная на высоте 2 м над землей.
Td - Температура точки росы - температура, при понижении до которой содержащийся в воздухе водяной пар достигнет насыщения.
f - Относительная влажность воздуха - влажноcть воздуха, измеренная на высоте 2 м над землей.
Te - Эффективная температура - температура, которую ощущает одетый по сезону человек в тени. Характеристика душности погоды. При расчете учитывается влияние влажности воздуха и скорости ветра на теплоощущения человека.
Tes - Эффективная температура на солнце - температура, которую ощущает человек, с поправкой на солнечный нагрев. Характеристика знойности погоды. Зависит от высоты солнца над горизонтом, облачности и скорости ветра. Ночью, в пасмурную погоду, а также при ветре 12 м/с и более поправка равна нулю.
P - Атмосферное давление - приведенное к уровню моря атмосферное давление.
Po - Атмосферное давление - измеренное на уровне метеостанции атмосферное давление.
Tmin - Минимальная температура - минимум температуры воздуха на высоте 2 м над землей.
Tmax - Максимальная температура - максимум температуры воздуха на высоте 2 м над землей.
R - Количество осадков - Количество выпавших осадков за период времени, мм. При наведении курсора мыши на число - период времени, за который выпало указанное количество осадков.
R24 - Количество осадков - Количество выпавших осадков за 24 часа, мм.
S - Снежный покров - Высота снежного покрова, см. При наведении курсора мыши на число - состояние снежного покрова и степень покрытия местности в баллах.